Voltar ao catálogo

SL-14 DEB

AtivoPO
NORAD 45288·DEBRIS·🇷🇺 Russia

Lançado Aug 15, 1991 de Plesetsk Cosmodrome

Loading…

Próximas Passagens (próximas 24 horas)

TLE

AtualizadoSource: Space-Track

Época: Sep 14, 2026, 02:30 UTC

1 45288U 91056AA  26257.10437615  .00006421  00000-0  20464-1 0  9997
2 45288  82.6109 189.8056 0282959  14.6465 346.2629 12.90261714307806

Acompanhe SL-14 DEB em tempo real com AllMySat

Download on the App Store